Simultaneous Nadir Overpasses (SNOs) Predictions

Prediction of SNOs between AURA and NPP Satellite Orbit:

Table of predicted SNOs for the next 14.0 days since TLE Epoch: 8/25/2017
Index Date (AURA) Time (AURA) Lat,Lon (AURA) SZA (AURA ) Date (NPP) Time (NPP) Lat,Lon (NPP) SZA (NPP ) Distance(km) Time Diff (sec)
1 08/26/2017 02:51:51 -79.12,-148.70 97.16 08/26/2017 02:51:11 -79.11,-148.83 97.11 2.91 40
2 08/26/2017 03:41:09 79.43, 20.97 82.40 08/26/2017 03:41:46 79.43, 20.92 82.39 1.04 37
3 08/28/2017 19:08:15 -79.32, -31.57 96.55 08/28/2017 19:08:02 -79.33, -31.44 96.57 3.09 13
4 08/28/2017 19:57:36 79.51, 137.36 83.19 08/28/2017 19:58:41 79.51, 137.30 83.15 1.20 65
5 08/31/2017 10:35:23 79.07, -84.88 84.69 08/31/2017 10:34:21 79.07, -84.89 84.74 0.25 62
6 08/31/2017 11:24:44 -79.31, 84.28 95.64 08/31/2017 11:25:00 -79.30, 84.14 95.62 3.18 16
7 09/03/2017 02:51:49 79.18, 31.67 85.46 09/03/2017 02:51:15 79.18, 31.69 85.48 0.55 34
8 09/03/2017 03:41:10 -79.42,-159.13 94.87 09/03/2017 03:41:54 -79.41,-159.25 94.88 2.59 44
9 09/05/2017 19:08:13 79.32, 148.46 86.20 09/05/2017 19:08:07 79.33, 148.54 86.18 1.69 6
10 09/05/2017 19:57:35 -79.52, -42.56 94.08 09/05/2017 19:58:47 -79.52, -42.63 94.12 1.51 72
11 09/08/2017 10:35:21 -79.11, 95.38 92.59 09/08/2017 10:34:26 -79.12, 95.41 92.55 0.65 55




NCC Satellite Simultaneous Nadir Overpasses (SNOs) Prediction Service
